Вернуться в каталог

STARLINK-4425

АктивенСвязьSSO
NORAD 53208·PAYLOAD·🇺🇸 United States

Запущен Jul 22, 2022 с Vandenberg Space Force Base

Loading…

Ближайшие Пролёты (ближайшие 24 часа)

TLE

СвежийSource: CelesTrak SupGP

Эпоха: Sep 14, 2026, 22:22 UTC

1 53208C 22084V   26257.93243056  .00684340  00000+0  17368-1 0  2575
2 53208  97.2815 312.7860 0001253  80.7969 154.8158 15.39374129    16

Отслеживайте STARLINK-4425 в реальном времени с AllMySat

Download on the App Store